| time (UTC) | temp C | wind direction | speed KPH | gust KPH | rain 1hr cm | rain 24hr cm | rain mn cm | humidity % | barometer mb |
| 20260504002516 | 26 | 342 | 3.2 | 9.7 | 0.00 | 0.00 | 0.00 | 40 | 1001.5 |
| 20260504001515 | 26 | 325 | 4.8 | 16.1 | 0.00 | 0.00 | 0.00 | 40 | 1001.6 |
| 20260504000516 | 26 | 333 | 4.8 | 11.3 | 0.00 | 0.00 | 0.00 | 40 | 1001.7 |
| 20260503235516 | 26 | 343 | 6.4 | 12.9 | 0.00 | 0.00 | 0.00 | 40 | 1001.8 |
| 20260503234516 | 26 | 334 | 6.4 | 17.7 | 0.00 | 0.00 | 0.00 | 40 | 1001.9 |
| 20260503233516 | 26 | 329 | 4.8 | 9.7 | 0.00 | 0.00 | 0.00 | 38 | 1002.0 |
| 20260503232516 | 26 | 354 | 6.4 | 16.1 | 0.00 | 0.00 | 0.00 | 38 | 1002.2 |
| 20260503231517 | 26 | 332 | 4.8 | 14.5 | 0.00 | 0.00 | 0.00 | 38 | 1002.3 |
| 20260503230517 | 26 | 338 | 4.8 | 14.5 | 0.00 | 0.00 | 0.00 | 39 | 1002.4 |
| 20260503225517 | 26 | 336 | 4.8 | 11.3 | 0.00 | 0.00 | 0.00 | 39 | 1002.6 |
| 20260503224517 | 26 | 307 | 4.8 | 12.9 | 0.00 | 0.00 | 0.00 | 39 | 1002.8 |
| 20260503223517 | 26 | 103 | 3.2 | 8.0 | 0.00 | 0.00 | 0.00 | 38 | 1002.9 |
| 20260503222517 | 26 | 358 | 3.2 | 6.4 | 0.00 | 0.00 | 0.00 | 38 | 1003.1 |
| 20260503221518 | 26 | 52 | 4.8 | 12.9 | 0.00 | 0.00 | 0.00 | 39 | 1003.1 |
| 20260503220518 | 26 | 289 | 3.2 | 11.3 | 0.00 | 0.00 | 0.00 | 40 | 1003.3 |
| 20260503215518 | 26 | 338 | 4.8 | 11.3 | 0.00 | 0.00 | 0.00 | 39 | 1003.3 |
| 20260503214518 | 26 | 349 | 3.2 | 9.7 | 0.00 | 0.00 | 0.00 | 40 | 1003.4 |
| 20260503213539 | 26 | 334 | 8.0 | 16.1 | 0.00 | 0.00 | 0.00 | 39 | 1003.5 |
| 20260503212516 | 26 | 339 | 4.8 | 14.5 | 0.00 | 0.00 | 0.00 | 40 | 1003.7 |
| 20260503211515 | 25 | 339 | 4.8 | 12.9 | 0.00 | 0.00 | 0.00 | 41 | 1003.8 |
| 20260503210516 | 25 | 33 | 3.2 | 11.3 | 0.00 | 0.00 | 0.00 | 44 | 1003.8 |
| 20260503205516 | 25 | 347 | 4.8 | 14.5 | 0.00 | 0.00 | 0.00 | 44 | 1004.0 |
| 20260503204516 | 25 | 48 | 3.2 | 9.7 | 0.00 | 0.00 | 0.00 | 44 | 1004.1 |
| 20260503203516 | 25 | 74 | 3.2 | 11.3 | 0.00 | 0.00 | 0.00 | 45 | 1004.1 |
| 20260503202517 | 25 | 36 | 3.2 | 9.7 | 0.00 | 0.00 | 0.00 | 44 | 1004.2 |
| 20260503201517 | 25 | 84 | 4.8 | 12.9 | 0.00 | 0.00 | 0.00 | 44 | 1004.3 |
| 20260503200517 | 24 | 359 | 3.2 | 9.7 | 0.00 | 0.00 | 0.00 | 45 | 1004.5 |
| 20260503195557 | 24 | 338 | 4.8 | 11.3 | 0.00 | 0.00 | 0.00 | 47 | 1004.6 |
| 20260503194517 | 24 | 355 | 4.8 | 11.3 | 0.00 | 0.00 | 0.00 | 48 | 1004.8 |
| 20260503193517 | 25 | 335 | 3.2 | 11.3 | 0.00 | 0.00 | 0.00 | 47 | 1004.9 |
| 20260503192517 | 24 | 333 | 3.2 | 8.0 | 0.00 | 0.00 | 0.00 | 48 | 1005.1 |
| 20260503191538 | 24 | 332 | 4.8 | 11.3 | 0.00 | 0.00 | 0.00 | 48 | 1005.2 |
| 20260503190518 | 23 | 360 | 3.2 | 9.7 | 0.00 | 0.00 | 0.00 | 48 | 1005.2 |
| 20260503185518 | 23 | 358 | 3.2 | 11.3 | 0.00 | 0.00 | 0.00 | 47 | 1005.3 |
| 20260503184518 | 23 | 315 | 3.2 | 11.3 | 0.00 | 0.00 | 0.00 | 48 | 1005.4 |
| 20260503183538 | 22 | 172 | 3.2 | 9.7 | 0.00 | 0.00 | 0.00 | 50 | 1005.5 |
| 20260503182516 | 22 | 322 | 6.4 | 14.5 | 0.00 | 0.00 | 0.00 | 51 | 1005.4 |
| 20260503181536 | 22 | 308 | 3.2 | 9.7 | 0.00 | 0.00 | 0.00 | 51 | 1005.5 |
| 20260503180537 | 21 | 353 | 4.8 | 11.3 | 0.00 | 0.00 | 0.00 | 52 | 1005.5 |
| 20260503175516 | 21 | 325 | 4.8 | 14.5 | 0.00 | 0.00 | 0.00 | 53 | 1005.5 |
| 20260503174536 | 21 | 345 | 4.8 | 11.3 | 0.00 | 0.00 | 0.00 | 54 | 1005.6 |
| 20260503173516 | 21 | 298 | 4.8 | 8.0 | 0.00 | 0.00 | 0.00 | 55 | 1005.7 |
| 20260503172516 | 21 | 330 | 4.8 | 14.5 | 0.00 | 0.00 | 0.00 | 56 | 1005.7 |
| 20260503171517 | 20 | 303 | 3.2 | 8.0 | 0.00 | 0.00 | 0.00 | 57 | 1005.8 |
| 20260503170517 | 20 | 49 | 3.2 | 11.3 | 0.00 | 0.00 | 0.00 | 58 | 1005.8 |
| 20260503150516 | 17 | 292 | 1.6 | 8.0 | 0.00 | 0.00 | 0.00 | 63 | 1005.6 |
| 20260503130518 | 14 | 124 | 1.6 | 4.8 | 0.00 | 0.00 | 0.00 | 69 | 1004.7 |
| 20260503110517 | 15 | 123 | 1.6 | 4.8 | 0.00 | 0.00 | 0.00 | 67 | 1005.1 |
| 20260503081516 | 16 | 207 | 0.0 | 3.2 | 0.00 | 0.00 | 0.00 | 60 | 1005.2 |
| 20260503080517 | 16 | 261 | 1.6 | 4.8 | 0.00 | 0.00 | 0.00 | 58 | 1005.2 |
| 20260503072517 | 16 | 183 | 0.0 | 3.2 | 0.00 | 0.00 | 0.00 | 58 | 1005.1 |
| 20260503071517 | 16 | 194 | 0.0 | 1.6 | 0.00 | 0.00 | 0.00 | 58 | 1005.1 |
| 20260503070518 | 16 | 239 | 0.0 | 3.2 | 0.00 | 0.00 | 0.00 | 58 | 1005.0 |
| 20260503054516 | 17 | 165 | 0.0 | 3.2 | 0.00 | 0.00 | 0.00 | 56 | 1004.9 |
| 20260503053516 | 16 | 160 | 0.0 | 3.2 | 0.00 | 0.00 | 0.00 | 58 | 1004.9 |
| 20260503052516 | 16 | 156 | 0.0 | 3.2 | 0.00 | 0.00 | 0.00 | 60 | 1004.9 |
| 20260503051557 | 16 | 183 | 0.0 | 3.2 | 0.00 | 0.00 | 0.00 | 59 | 1004.8 |
| 20260503050516 | 16 | 259 | 1.6 | 3.2 | 0.00 | 0.00 | 0.00 | 61 | 1004.8 |
| 20260503045516 | 16 | 227 | 0.0 | 3.2 | 0.00 | 0.00 | 0.00 | 65 | 1004.7 |
| 20260503044517 | 16 | 157 | 1.6 | 3.2 | 0.00 | 0.00 | 0.00 | 64 | 1004.7 |
| 20260503043517 | 16 | 163 | 0.0 | 3.2 | 0.00 | 0.00 | 0.00 | 63 | 1004.6 |
| 20260503042517 | 17 | 170 | 0.0 | 3.2 | 0.00 | 0.00 | 0.00 | 61 | 1004.5 |
| 20260503041537 | 18 | 162 | 1.6 | 4.8 | 0.00 | 0.00 | 0.00 | 56 | 1004.5 |
| 20260503040518 | 18 | 129 | 3.2 | 6.4 | 0.00 | 0.00 | 0.00 | 53 | 1004.4 |
| 20260503035538 | 19 | 136 | 1.6 | 4.8 | 0.00 | 0.00 | 0.00 | 51 | 1004.3 |
| 20260503034518 | 19 | 155 | 1.6 | 4.8 | 0.00 | 0.00 | 0.00 | 51 | 1004.2 |
| 20260503033518 | 19 | 236 | 1.6 | 6.4 | 0.00 | 0.00 | 0.00 | 51 | 1003.9 |
| 20260503032518 | 20 | 283 | 3.2 | 8.0 | 0.00 | 0.00 | 0.00 | 50 | 1003.8 |
| 20260503031536 | 20 | 258 | 1.6 | 6.4 | 0.00 | 0.00 | 0.00 | 50 | 1003.8 |
| 20260503030515 | 20 | 294 | 4.8 | 11.3 | 0.00 | 0.00 | 0.00 | 49 | 1003.8 |
| 20260503025656 | 21 | 272 | 3.2 | 8.0 | 0.00 | 0.00 | 0.00 | 48 | 1003.7 |
| 20260503024516 | 21 | 302 | 6.4 | 12.9 | 0.00 | 0.00 | 0.00 | 47 | 1003.8 |
| 20260503023516 | 21 | 305 | 4.8 | 11.3 | 0.00 | 0.00 | 0.00 | 46 | 1003.7 |
| 20260503022516 | 21 | 304 | 4.8 | 14.5 | 0.00 | 0.00 | 0.00 | 46 | 1003.8 |
| 20260503021538 | 22 | 317 | 6.4 | 14.5 | 0.00 | 0.00 | 0.00 | 46 | 1003.8 |
| 20260503020516 | 22 | 304 | 4.8 | 9.7 | 0.00 | 0.00 | 0.00 | 47 | 1003.9 |
| 20260503015517 | 22 | 307 | 4.8 | 20.9 | 0.00 | 0.00 | 0.00 | 47 | 1004.0 |
| 20260503014517 | 22 | 306 | 6.4 | 16.1 | 0.00 | 0.00 | 0.00 | 47 | 1004.1 |
| 20260503013517 | 22 | 313 | 6.4 | 14.5 | 0.00 | 0.00 | 0.00 | 47 | 1004.2 |
| 20260503012517 | 22 | 309 | 6.4 | 16.1 | 0.00 | 0.00 | 0.00 | 47 | 1004.2 |
| 20260503011517 | 22 | 334 | 4.8 | 16.1 | 0.00 | 0.00 | 0.00 | 47 | 1004.3 |
| 20260503010518 | 23 | 322 | 4.8 | 16.1 | 0.00 | 0.00 | 0.00 | 47 | 1004.3 |
| 20260503005518 | 23 | 345 | 4.8 | 12.9 | 0.00 | 0.00 | 0.00 | 46 | 1004.5 |
| 20260503004538 | 23 | 300 | 4.8 | 12.9 | 0.00 | 0.00 | 0.00 | 46 | 1004.5 |
| 20260503003518 | 24 | 330 | 4.8 | 12.9 | 0.00 | 0.00 | 0.00 | 45 | 1004.6 |